UAL1321 KEWR-KLAX

Flight info

Callsign UAL1321
Flight time 5h 3m
Altitude 38000
Route ZIMMZ Q42 MIKYG Q480 AIR DQN/N0479F400 GORDO SAAGS RYLIE DRO JASSE Q90 DNERO ANJLL4
Aircraft B789/H-SDE1E2E3FGHIJ2J3J4J5M1RWXY/LB1D1

Departure

Time 2026-04-22 12:14
Airport Newark Liberty International Airport (KEWR)

Arrival

Time 2026-04-22 17:18
Airport Los Angeles International Airport (KLAX)
Time Latitude Longitude Altitude Speed Heading
2026-04-22 11:42 40.68485 -74.18643 27 ft 0 kts 221°
2026-04-22 12:01 40.68490 -74.18637 28 ft 2 kts 219°
2026-04-22 12:01 40.68502 -74.18623 25 ft 2 kts 221°
2026-04-22 12:01 40.68515 -74.18608 25 ft 2 kts 221°
2026-04-22 12:01 40.68527 -74.18594 25 ft 2 kts 217°
2026-04-22 12:02 40.68542 -74.18585 26 ft 2 kts 194°
2026-04-22 12:02 40.68559 -74.18582 25 ft 2 kts 184°
2026-04-22 12:02 40.68575 -74.18582 26 ft 2 kts 173°
2026-04-22 12:02 40.68592 -74.18585 25 ft 2 kts 172°
2026-04-22 12:03 40.68608 -74.18587 27 ft 2 kts 177°
2026-04-22 12:03 40.68625 -74.18588 27 ft 2 kts 178°
2026-04-22 12:03 40.68640 -74.18588 27 ft 1 kts 178°
2026-04-22 12:03 40.68643 -74.18588 26 ft 0 kts 178°
2026-04-22 12:04 40.68642 -74.18588 27 ft 0 kts 178°
2026-04-22 12:05 40.68637 -74.18588 27 ft 2 kts 178°
2026-04-22 12:05 40.68595 -74.18586 27 ft 10 kts 178°
2026-04-22 12:05 40.68526 -74.18537 27 ft 12 kts 125°
2026-04-22 12:05 40.68511 -74.18443 27 ft 10 kts 94°
2026-04-22 12:06 40.68505 -74.18348 27 ft 11 kts 94°
2026-04-22 12:06 40.68499 -74.18249 27 ft 11 kts 96°
2026-04-22 12:06 40.68472 -74.18159 27 ft 10 kts 126°
2026-04-22 12:06 40.68431 -74.18074 27 ft 12 kts 116°
2026-04-22 12:07 40.68396 -74.17976 27 ft 12 kts 115°
2026-04-22 12:07 40.68360 -74.17878 27 ft 12 kts 115°
2026-04-22 12:07 40.68326 -74.17781 27 ft 11 kts 115°
2026-04-22 12:07 40.68332 -74.17731 27 ft 7 kts 50°
2026-04-22 12:08 40.68377 -74.17693 28 ft 9 kts 26°
2026-04-22 12:08 40.68420 -74.17640 28 ft 9 kts 79°
2026-04-22 12:08 40.68426 -74.17556 28 ft 10 kts 61°
2026-04-22 12:08 40.68511 -74.17487 28 ft 18 kts 25°
2026-04-22 12:09 40.68623 -74.17418 29 ft 17 kts 25°
2026-04-22 12:09 40.68730 -74.17348 28 ft 17 kts 26°
2026-04-22 12:09 40.68839 -74.17275 28 ft 18 kts 27°
2026-04-22 12:09 40.68949 -74.17207 27 ft 17 kts 25°
2026-04-22 12:10 40.69061 -74.17136 26 ft 18 kts 26°
2026-04-22 12:10 40.69173 -74.17065 27 ft 18 kts 25°
2026-04-22 12:10 40.69285 -74.16995 27 ft 18 kts 25°
2026-04-22 12:10 40.69397 -74.16923 28 ft 18 kts 26°
2026-04-22 12:11 40.69508 -74.16851 28 ft 18 kts 25°
2026-04-22 12:11 40.69620 -74.16782 27 ft 18 kts 26°
2026-04-22 12:11 40.69733 -74.16709 27 ft 19 kts 26°
2026-04-22 12:11 40.69852 -74.16634 26 ft 19 kts 25°
2026-04-22 12:12 40.69960 -74.16567 26 ft 16 kts 25°
2026-04-22 12:12 40.70034 -74.16519 26 ft 8 kts 27°
2026-04-22 12:12 40.70062 -74.16466 30 ft 7 kts 84°
2026-04-22 12:12 40.70056 -74.16382 30 ft 8 kts 114°
2026-04-22 12:13 40.70033 -74.16366 30 ft 5 kts 181°
2026-04-22 12:13 40.69993 -74.16385 27 ft 0 kts 206°
2026-04-22 12:13 40.69924 -74.16429 29 ft 35 kts 205°
2026-04-22 12:14 40.69498 -74.16701 28 ft 102 kts 205°
2026-04-22 12:14 40.68669 -74.17226 32 ft 161 kts 205°
2026-04-22 12:14 40.67615 -74.17936 680 ft 170 kts 210°
2026-04-22 12:14 40.66504 -74.18243 1785 ft 152 kts 180°
2026-04-22 12:15 40.65478 -74.18137 2693 ft 157 kts 178°
2026-04-22 12:15 40.64356 -74.17936 3282 ft 170 kts 178°
2026-04-22 12:15 40.63119 -74.18192 3537 ft 192 kts 210°
2026-04-22 12:15 40.62139 -74.19510 3832 ft 220 kts 246°
2026-04-22 12:16 40.62121 -74.21605 4428 ft 245 kts 290°
2026-04-22 12:16 40.63168 -74.23402 5486 ft 255 kts 316°
2026-04-22 12:16 40.64715 -74.24536 6514 ft 261 kts 334°
2026-04-22 12:16 40.66422 -74.25374 7552 ft 263 kts 336°
2026-04-22 12:17 40.68166 -74.26145 8621 ft 265 kts 337°
2026-04-22 12:17 40.69934 -74.26889 9679 ft 268 kts 337°
2026-04-22 12:17 40.71740 -74.27629 10451 ft 281 kts 337°
2026-04-22 12:17 40.73690 -74.28437 10758 ft 308 kts 338°
2026-04-22 12:18 40.75817 -74.29345 11110 ft 330 kts 338°
2026-04-22 12:18 40.77959 -74.30321 12069 ft 329 kts 332°
2026-04-22 12:18 40.79759 -74.32161 12938 ft 325 kts 306°
2026-04-22 12:18 40.80836 -74.34784 13745 ft 330 kts 290°
2026-04-22 12:19 40.81326 -74.37705 14491 ft 334 kts 275°
2026-04-22 12:19 40.81266 -74.40784 15259 ft 338 kts 268°
2026-04-22 12:19 40.81121 -74.43905 16024 ft 340 kts 270°
2026-04-22 12:19 40.81082 -74.47042 16577 ft 345 kts 272°
2026-04-22 12:20 40.81096 -74.50203 17100 ft 344 kts 272°
2026-04-22 12:20 40.81073 -74.53406 17790 ft 347 kts 271°
2026-04-22 12:20 40.81024 -74.56572 18583 ft 350 kts 271°
2026-04-22 12:20 40.80984 -74.59819 19261 ft 353 kts 272°
2026-04-22 12:21 40.80955 -74.63077 19930 ft 356 kts 272°
2026-04-22 12:21 40.80921 -74.66363 20585 ft 358 kts 272°
2026-04-22 12:21 40.80881 -74.69656 21217 ft 361 kts 272°
2026-04-22 12:21 40.80840 -74.73013 21846 ft 364 kts 272°
2026-04-22 12:22 40.80801 -74.76366 22456 ft 367 kts 272°
2026-04-22 12:22 40.80760 -74.79705 23018 ft 370 kts 272°
2026-04-22 12:22 40.80717 -74.83120 23598 ft 373 kts 272°
2026-04-22 12:22 40.80672 -74.86583 24092 ft 376 kts 272°
2026-04-22 12:23 40.80626 -74.90060 24558 ft 378 kts 272°
2026-04-22 12:23 40.80579 -74.93512 25006 ft 381 kts 272°
2026-04-22 12:23 40.80531 -74.97011 25451 ft 383 kts 272°
2026-04-22 12:23 40.80481 -75.00548 25874 ft 386 kts 272°
2026-04-22 12:24 40.80430 -75.04096 26301 ft 388 kts 272°
2026-04-22 12:24 40.80377 -75.07651 26728 ft 390 kts 272°
2026-04-22 12:24 40.80318 -75.11251 27147 ft 393 kts 270°
2026-04-22 12:24 40.79939 -75.14879 27517 ft 399 kts 263°
2026-04-22 12:25 40.79416 -75.18505 27904 ft 401 kts 263°
2026-04-22 12:25 40.78893 -75.22133 28295 ft 404 kts 263°
2026-04-22 12:25 40.78361 -75.25783 28670 ft 406 kts 263°
2026-04-22 12:25 40.77823 -75.29455 29038 ft 409 kts 263°
2026-04-22 12:26 40.77291 -75.33103 29402 ft 411 kts 263°
2026-04-22 12:26 40.76716 -75.36803 29735 ft 415 kts 258°
2026-04-22 12:26 40.75730 -75.40423 30069 ft 423 kts 250°
2026-04-22 12:26 40.74430 -75.43924 30332 ft 427 kts 249°
2026-04-22 12:27 40.73125 -75.47442 30631 ft 428 kts 249°
2026-04-22 12:27 40.71807 -75.50982 30902 ft 431 kts 249°
2026-04-22 12:27 40.70477 -75.54533 31171 ft 433 kts 249°
2026-04-22 12:27 40.69142 -75.58094 31447 ft 435 kts 249°
2026-04-22 12:28 40.67798 -75.61685 31705 ft 437 kts 249°
2026-04-22 12:28 40.66449 -75.65286 31962 ft 438 kts 249°
2026-04-22 12:28 40.65092 -75.68897 32215 ft 440 kts 249°
2026-04-22 12:28 40.63730 -75.72517 32460 ft 442 kts 249°
2026-04-22 12:29 40.62362 -75.76153 32696 ft 444 kts 249°
2026-04-22 12:29 40.60986 -75.79802 32919 ft 446 kts 249°
2026-04-22 12:29 40.59621 -75.83418 33138 ft 448 kts 249°
2026-04-22 12:29 40.58225 -75.87097 33358 ft 450 kts 248°
2026-04-22 12:30 40.55410 -75.94495 33773 ft 453 kts 248°
2026-04-22 12:30 40.53997 -75.98208 33992 ft 455 kts 248°
2026-04-22 12:30 40.52582 -76.01920 34259 ft 455 kts 248°
2026-04-22 12:31 40.51161 -76.05637 34482 ft 455 kts 248°
2026-04-22 12:31 40.49739 -76.09358 34676 ft 456 kts 248°
2026-04-22 12:31 40.48314 -76.13082 34904 ft 456 kts 248°
2026-04-22 12:31 40.46887 -76.16805 35112 ft 457 kts 248°
2026-04-22 12:32 40.45454 -76.20541 35298 ft 458 kts 248°
2026-04-22 12:32 40.42578 -76.28019 35701 ft 460 kts 248°
2026-04-22 12:32 40.41133 -76.31772 35899 ft 460 kts 248°
2026-04-22 12:33 40.39686 -76.35523 36086 ft 461 kts 248°
2026-04-22 12:33 40.38236 -76.39280 36296 ft 462 kts 248°
2026-04-22 12:33 40.36783 -76.43037 36493 ft 462 kts 248°
2026-04-22 12:33 40.35326 -76.46799 36685 ft 463 kts 248°
2026-04-22 12:34 40.34360 -76.49294 36815 ft 463 kts 248°
2026-04-22 12:34 40.32887 -76.53043 36999 ft 464 kts 247°
2026-04-22 12:34 40.31366 -76.56801 37191 ft 465 kts 247°
2026-04-22 12:34 40.29851 -76.60545 37372 ft 466 kts 248°
2026-04-22 12:35 40.27867 -76.65528 37624 ft 466 kts 248°
2026-04-22 12:35 40.26850 -76.68077 37762 ft 467 kts 248°
2026-04-22 12:35 40.25335 -76.71841 37909 ft 468 kts 248°
2026-04-22 12:35 40.23812 -76.75614 38079 ft 469 kts 248°
2026-04-22 12:36 40.20759 -76.83201 38133 ft 472 kts 248°
2026-04-22 12:36 40.17696 -76.90773 38132 ft 470 kts 248°
2026-04-22 12:37 40.14659 -76.98280 38139 ft 470 kts 248°
2026-04-22 12:37 40.11589 -77.05839 38115 ft 470 kts 247°
2026-04-22 12:38 40.08516 -77.13389 38123 ft 471 kts 248°
2026-04-22 12:38 40.05440 -77.20926 38099 ft 470 kts 247°
2026-04-22 12:39 40.00814 -77.32231 38101 ft 471 kts 247°
2026-04-22 12:40 39.97734 -77.39776 38097 ft 468 kts 251°
2026-04-22 12:40 39.95949 -77.47696 38115 ft 456 kts 269°
2026-04-22 12:41 39.95929 -77.55894 38106 ft 452 kts 276°
2026-04-22 12:41 39.96178 -77.64087 38112 ft 453 kts 277°
2026-04-22 12:42 39.96436 -77.72290 38106 ft 453 kts 276°
2026-04-22 12:42 39.96679 -77.80496 38102 ft 453 kts 276°
2026-04-22 12:43 39.96921 -77.88704 38097 ft 454 kts 276°
2026-04-22 12:43 39.97156 -77.96943 38090 ft 454 kts 276°
2026-04-22 12:44 39.97385 -78.05117 38079 ft 455 kts 276°
2026-04-22 12:44 39.97608 -78.13354 38079 ft 455 kts 276°
2026-04-22 12:45 39.97827 -78.21598 38080 ft 455 kts 276°
2026-04-22 12:45 39.98039 -78.29851 38078 ft 456 kts 276°
2026-04-22 12:46 39.98246 -78.38119 38079 ft 456 kts 276°
2026-04-22 12:46 39.98447 -78.46381 38080 ft 455 kts 276°
2026-04-22 12:47 39.98643 -78.54650 38076 ft 456 kts 276°
2026-04-22 12:47 39.98833 -78.62921 38076 ft 456 kts 276°
2026-04-22 12:48 39.99017 -78.71198 38071 ft 456 kts 276°
2026-04-22 12:48 39.99193 -78.79418 38069 ft 456 kts 276°
2026-04-22 12:49 39.99365 -78.87701 38065 ft 456 kts 276°
2026-04-22 12:49 39.99532 -78.95975 38067 ft 456 kts 276°
2026-04-22 12:50 39.99692 -79.04244 38069 ft 456 kts 276°
2026-04-22 12:50 39.99846 -79.12518 38075 ft 457 kts 276°
2026-04-22 12:51 39.99995 -79.20814 38080 ft 457 kts 276°
2026-04-22 12:51 40.00138 -79.29091 38086 ft 457 kts 276°
2026-04-22 12:52 40.00274 -79.37372 38087 ft 457 kts 276°
2026-04-22 12:52 40.00405 -79.45662 38104 ft 457 kts 276°
2026-04-22 12:53 40.00529 -79.53934 38103 ft 457 kts 276°
2026-04-22 12:53 40.00649 -79.62223 38100 ft 456 kts 276°
2026-04-22 12:54 40.00761 -79.70493 38103 ft 456 kts 276°
2026-04-22 12:54 40.00868 -79.78763 38110 ft 456 kts 276°
2026-04-22 12:55 40.00969 -79.87053 38106 ft 456 kts 276°
2026-04-22 12:55 40.01063 -79.95325 38102 ft 456 kts 276°
2026-04-22 12:56 40.01152 -80.03534 38100 ft 456 kts 276°
2026-04-22 12:56 40.01235 -80.11802 38104 ft 456 kts 276°
2026-04-22 12:57 40.01312 -80.20072 38103 ft 456 kts 276°
2026-04-22 12:57 40.01383 -80.28325 38104 ft 455 kts 276°
2026-04-22 12:58 40.01449 -80.36582 38102 ft 455 kts 276°
2026-04-22 12:58 40.01508 -80.44840 38091 ft 455 kts 276°
2026-04-22 12:59 40.01562 -80.53104 38065 ft 455 kts 276°
2026-04-22 12:59 40.01610 -80.61375 38066 ft 455 kts 276°
2026-04-22 13:00 40.01653 -80.69595 38064 ft 456 kts 276°
2026-04-22 13:00 40.01688 -80.77864 38067 ft 456 kts 276°
2026-04-22 13:01 40.01743 -80.86134 38064 ft 454 kts 277°
2026-04-22 13:01 40.01902 -80.94352 38058 ft 453 kts 276°
2026-04-22 13:02 40.01996 -81.02595 38065 ft 454 kts 276°
2026-04-22 13:02 40.02113 -81.10826 38058 ft 454 kts 276°
2026-04-22 13:03 40.02210 -81.19059 38068 ft 454 kts 276°
2026-04-22 13:03 40.02308 -81.27287 38074 ft 453 kts 276°
2026-04-22 13:04 40.02398 -81.35514 38076 ft 454 kts 276°
2026-04-22 13:04 40.02482 -81.43748 38083 ft 454 kts 276°
2026-04-22 13:05 40.02560 -81.51936 38085 ft 453 kts 276°
2026-04-22 13:05 40.02633 -81.60156 38092 ft 453 kts 276°
2026-04-22 13:06 40.02700 -81.68395 38088 ft 454 kts 276°
2026-04-22 13:06 40.02761 -81.76634 38280 ft 452 kts 276°
2026-04-22 13:06 40.02788 -81.80724 38590 ft 450 kts 276°
2026-04-22 13:07 40.02816 -81.84809 38795 ft 450 kts 276°
2026-04-22 13:07 40.02842 -81.88892 38959 ft 450 kts 276°
2026-04-22 13:07 40.02865 -81.92979 39116 ft 451 kts 276°
2026-04-22 13:07 40.02887 -81.97077 39279 ft 451 kts 276°
2026-04-22 13:08 40.02908 -82.01176 39429 ft 451 kts 276°
2026-04-22 13:08 40.02928 -82.05217 39571 ft 451 kts 276°
2026-04-22 13:08 40.02946 -82.09318 39716 ft 452 kts 275°
2026-04-22 13:08 40.02963 -82.13415 39832 ft 453 kts 275°
2026-04-22 13:09 40.02978 -82.17537 39927 ft 454 kts 275°
2026-04-22 13:09 40.02992 -82.21655 40080 ft 454 kts 275°
2026-04-22 13:09 40.03005 -82.25801 40078 ft 457 kts 275°
2026-04-22 13:10 40.03024 -82.34085 40087 ft 455 kts 275°
2026-04-22 13:10 40.03040 -82.42267 40084 ft 453 kts 275°
2026-04-22 13:11 40.03048 -82.50492 40085 ft 453 kts 275°
2026-04-22 13:11 40.03051 -82.58700 40082 ft 453 kts 275°
2026-04-22 13:12 40.03048 -82.66913 40078 ft 453 kts 275°
2026-04-22 13:12 40.03040 -82.75134 40082 ft 452 kts 275°
2026-04-22 13:13 40.03025 -82.83337 40083 ft 452 kts 275°
2026-04-22 13:13 40.03005 -82.91556 40083 ft 453 kts 275°
2026-04-22 13:14 40.02979 -82.99765 40083 ft 452 kts 275°
2026-04-22 13:14 40.02948 -83.07907 40087 ft 452 kts 275°
2026-04-22 13:15 40.02910 -83.16125 40085 ft 453 kts 275°
2026-04-22 13:15 40.02866 -83.24329 40081 ft 452 kts 275°
2026-04-22 13:16 40.02818 -83.32538 40084 ft 452 kts 275°
2026-04-22 13:16 40.02762 -83.40748 40090 ft 452 kts 275°
2026-04-22 13:17 40.02702 -83.48951 40092 ft 452 kts 275°
2026-04-22 13:17 40.02635 -83.57168 40105 ft 452 kts 275°
2026-04-22 13:18 40.02563 -83.65369 40099 ft 452 kts 275°
2026-04-22 13:18 40.02485 -83.73573 40084 ft 452 kts 275°
2026-04-22 13:19 40.02401 -83.81781 40097 ft 452 kts 274°
2026-04-22 13:19 40.02312 -83.89989 40088 ft 452 kts 274°
2026-04-22 13:20 40.02233 -83.96823 40082 ft 453 kts 274°
2026-04-22 13:20 40.02115 -84.06362 40097 ft 453 kts 274°
2026-04-22 13:21 40.02026 -84.13244 40089 ft 453 kts 274°
2026-04-22 13:21 40.01914 -84.21471 40092 ft 454 kts 274°
2026-04-22 13:22 40.01797 -84.29655 40090 ft 454 kts 274°
2026-04-22 13:22 40.01673 -84.37898 40089 ft 455 kts 274°
2026-04-22 13:23 40.01497 -84.46140 40067 ft 455 kts 273°
2026-04-22 13:23 40.01265 -84.54377 40069 ft 454 kts 273°
2026-04-22 13:24 40.01061 -84.62629 40070 ft 455 kts 273°
2026-04-22 13:24 40.00831 -84.70873 40068 ft 455 kts 273°
2026-04-22 13:25 40.00606 -84.79113 40083 ft 454 kts 273°
2026-04-22 13:25 40.00370 -84.87352 40080 ft 455 kts 273°
2026-04-22 13:26 40.00132 -84.95544 40080 ft 455 kts 273°
2026-04-22 13:26 39.99886 -85.03781 40077 ft 455 kts 272°
2026-04-22 13:27 39.99634 -85.12029 40086 ft 455 kts 272°
2026-04-22 13:27 39.99376 -85.20279 40092 ft 456 kts 272°
2026-04-22 13:28 39.99112 -85.28545 40097 ft 456 kts 272°
2026-04-22 13:28 39.98842 -85.36809 40096 ft 456 kts 272°
2026-04-22 13:29 39.98565 -85.45071 40095 ft 456 kts 272°
2026-04-22 13:29 39.98284 -85.53328 40090 ft 456 kts 272°
2026-04-22 13:30 39.97996 -85.61585 40081 ft 456 kts 272°
2026-04-22 13:30 39.97702 -85.69857 40081 ft 456 kts 272°
2026-04-22 13:31 39.97402 -85.78119 40094 ft 456 kts 272°
2026-04-22 13:31 39.97099 -85.86330 40098 ft 457 kts 272°
2026-04-22 13:32 39.96787 -85.94601 40102 ft 456 kts 272°
2026-04-22 13:32 39.96469 -86.02879 40100 ft 457 kts 272°
2026-04-22 13:33 39.96145 -86.11153 40104 ft 457 kts 272°
2026-04-22 13:33 39.95816 -86.19434 40092 ft 457 kts 272°
2026-04-22 13:34 39.95480 -86.27706 40090 ft 457 kts 272°
2026-04-22 13:34 39.95141 -86.35928 40090 ft 457 kts 272°
2026-04-22 13:35 39.94794 -86.44199 40090 ft 457 kts 271°
2026-04-22 13:35 39.94441 -86.52469 40083 ft 457 kts 271°
2026-04-22 13:36 39.94082 -86.60734 40091 ft 456 kts 271°
2026-04-22 13:36 39.93718 -86.68987 40095 ft 456 kts 271°
2026-04-22 13:37 39.93348 -86.77236 40111 ft 456 kts 271°
2026-04-22 13:37 39.92973 -86.85488 40107 ft 456 kts 271°
2026-04-22 13:38 39.92591 -86.93731 40101 ft 455 kts 271°
2026-04-22 13:38 39.92009 -87.06092 40104 ft 456 kts 271°
2026-04-22 13:39 39.91613 -87.14325 40093 ft 456 kts 271°
2026-04-22 13:39 39.91215 -87.22501 40093 ft 455 kts 271°
2026-04-22 13:40 39.90807 -87.30746 40086 ft 456 kts 271°
2026-04-22 13:40 39.90393 -87.38989 40089 ft 455 kts 271°
2026-04-22 13:41 39.89975 -87.47208 40096 ft 455 kts 271°
2026-04-22 13:41 39.89551 -87.55438 40096 ft 456 kts 271°
2026-04-22 13:42 39.89119 -87.63673 40096 ft 455 kts 271°
2026-04-22 13:42 39.88684 -87.71889 40100 ft 455 kts 271°
2026-04-22 13:43 39.88242 -87.80111 40097 ft 455 kts 271°
2026-04-22 13:43 39.87797 -87.88279 40096 ft 455 kts 271°
2026-04-22 13:44 39.87344 -87.96499 40095 ft 455 kts 271°
2026-04-22 13:44 39.86885 -88.04722 40084 ft 455 kts 271°
2026-04-22 13:45 39.86419 -88.12948 40089 ft 455 kts 271°
2026-04-22 13:45 39.85949 -88.21161 40084 ft 455 kts 271°
2026-04-22 13:46 39.85473 -88.29362 40086 ft 455 kts 271°
2026-04-22 13:46 39.84991 -88.37576 40092 ft 455 kts 270°
2026-04-22 13:47 39.84503 -88.45786 40094 ft 455 kts 270°
2026-04-22 13:47 39.84011 -88.53995 40094 ft 455 kts 270°
2026-04-22 13:48 39.83545 -88.62161 40082 ft 456 kts 270°
2026-04-22 13:48 39.83057 -88.70390 40097 ft 456 kts 270°
2026-04-22 13:49 39.82569 -88.78622 40093 ft 456 kts 270°
2026-04-22 13:49 39.82073 -88.86862 40093 ft 457 kts 270°
2026-04-22 13:50 39.81570 -88.95110 40102 ft 458 kts 270°
2026-04-22 13:50 39.81061 -89.03364 40096 ft 457 kts 270°
2026-04-22 13:51 39.80546 -89.11612 40094 ft 458 kts 270°
2026-04-22 13:51 39.80029 -89.19811 40091 ft 458 kts 270°
2026-04-22 13:52 39.79502 -89.28069 40095 ft 458 kts 270°
2026-04-22 13:52 39.78969 -89.36329 40089 ft 458 kts 270°
2026-04-22 13:53 39.78430 -89.44596 40093 ft 459 kts 269°
2026-04-22 13:53 39.77885 -89.52865 40091 ft 459 kts 269°
2026-04-22 13:54 39.77333 -89.61131 40093 ft 459 kts 269°
2026-04-22 13:54 39.76776 -89.69402 40096 ft 459 kts 269°
2026-04-22 13:55 39.76217 -89.77612 40095 ft 458 kts 269°
2026-04-22 13:55 39.75648 -89.85871 40089 ft 458 kts 269°
2026-04-22 13:56 39.75075 -89.94113 40087 ft 458 kts 269°
2026-04-22 13:56 39.74498 -90.02318 40091 ft 458 kts 269°
2026-04-22 13:57 39.73913 -90.10565 40090 ft 458 kts 269°
2026-04-22 13:57 39.73323 -90.18792 40091 ft 457 kts 269°
2026-04-22 13:58 39.72725 -90.27045 40092 ft 458 kts 269°
2026-04-22 13:58 39.72122 -90.35292 40095 ft 458 kts 269°
2026-04-22 13:59 39.71514 -90.43523 40088 ft 458 kts 269°
2026-04-22 13:59 39.70900 -90.51757 40089 ft 458 kts 269°
2026-04-22 14:00 39.70283 -90.59944 40102 ft 458 kts 269°
2026-04-22 14:00 39.69658 -90.68172 40110 ft 458 kts 269°
2026-04-22 14:01 39.69026 -90.76403 40112 ft 458 kts 269°
2026-04-22 14:01 39.68388 -90.84636 40110 ft 459 kts 268°
2026-04-22 14:02 39.67743 -90.92877 40107 ft 457 kts 268°
2026-04-22 14:02 39.67096 -91.01087 40105 ft 457 kts 268°
2026-04-22 14:03 39.66442 -91.09302 40101 ft 457 kts 268°
2026-04-22 14:03 39.65782 -91.17514 40105 ft 457 kts 268°
2026-04-22 14:04 39.65117 -91.25721 40103 ft 457 kts 268°
2026-04-22 14:04 39.64445 -91.33927 40121 ft 458 kts 268°
2026-04-22 14:05 39.63773 -91.42081 40123 ft 458 kts 268°
2026-04-22 14:06 39.62743 -91.54426 40121 ft 459 kts 268°
2026-04-22 14:06 39.62167 -91.61265 40112 ft 458 kts 268°
2026-04-22 14:07 39.61351 -91.70866 40103 ft 458 kts 268°
2026-04-22 14:07 39.60766 -91.77696 40106 ft 458 kts 267°
2026-04-22 14:08 39.60058 -91.85896 40092 ft 458 kts 267°
2026-04-22 14:08 39.59344 -91.94096 40087 ft 457 kts 267°
2026-04-22 14:09 39.58624 -92.02301 40097 ft 458 kts 267°
2026-04-22 14:09 39.57898 -92.10498 40101 ft 458 kts 267°
2026-04-22 14:10 39.57167 -92.18690 40110 ft 457 kts 267°
2026-04-22 14:10 39.56435 -92.26834 40117 ft 458 kts 267°
2026-04-22 14:11 39.55692 -92.35020 40117 ft 457 kts 266°
2026-04-22 14:11 39.54945 -92.43203 40122 ft 457 kts 266°
2026-04-22 14:12 39.54191 -92.51383 40119 ft 457 kts 266°
2026-04-22 14:12 39.53431 -92.59567 40117 ft 457 kts 266°
2026-04-22 14:13 39.52667 -92.67737 40108 ft 457 kts 266°
2026-04-22 14:13 39.51897 -92.75907 40107 ft 457 kts 266°
2026-04-22 14:14 39.51120 -92.84080 40101 ft 457 kts 266°
2026-04-22 14:14 39.50337 -92.92263 40099 ft 458 kts 266°
2026-04-22 14:15 39.49548 -93.00445 40095 ft 457 kts 265°
2026-04-22 14:15 39.48754 -93.08621 40097 ft 458 kts 265°
2026-04-22 14:16 39.47953 -93.16807 40105 ft 458 kts 265°
2026-04-22 14:16 39.47151 -93.24934 40089 ft 458 kts 265°
2026-04-22 14:17 39.46351 -93.33112 40087 ft 458 kts 265°
2026-04-22 14:17 39.45592 -93.41293 40097 ft 458 kts 265°
2026-04-22 14:18 39.44801 -93.49473 40094 ft 458 kts 265°
2026-04-22 14:18 39.44017 -93.57662 40083 ft 458 kts 265°
2026-04-22 14:19 39.43221 -93.65840 40081 ft 458 kts 265°
2026-04-22 14:19 39.42421 -93.74033 40080 ft 459 kts 265°
2026-04-22 14:20 39.41213 -93.86273 40088 ft 459 kts 264°
2026-04-22 14:20 39.40398 -93.94463 40090 ft 459 kts 264°
2026-04-22 14:21 39.39165 -94.06744 40094 ft 459 kts 264°
2026-04-22 14:22 39.37918 -94.19016 40107 ft 459 kts 264°
2026-04-22 14:23 39.36660 -94.31271 40099 ft 459 kts 264°
2026-04-22 14:23 39.35814 -94.39448 40105 ft 459 kts 264°
2026-04-22 14:24 39.34961 -94.47627 40093 ft 460 kts 264°
2026-04-22 14:24 39.34102 -94.55811 40079 ft 459 kts 264°
2026-04-22 14:25 39.33244 -94.63929 40081 ft 459 kts 263°
2026-04-22 14:25 39.32374 -94.72095 40085 ft 459 kts 263°
2026-04-22 14:26 39.31500 -94.80259 40089 ft 459 kts 263°
2026-04-22 14:26 39.30616 -94.88450 40079 ft 459 kts 263°
2026-04-22 14:27 39.29730 -94.96608 40076 ft 459 kts 263°
2026-04-22 14:27 39.28838 -95.04764 40068 ft 459 kts 263°
2026-04-22 14:28 39.27939 -95.12926 40070 ft 459 kts 263°
2026-04-22 14:28 39.27036 -95.21083 40073 ft 459 kts 263°
2026-04-22 14:29 39.26126 -95.29244 40070 ft 459 kts 263°
2026-04-22 14:29 39.25212 -95.37386 40068 ft 459 kts 262°
2026-04-22 14:30 39.24291 -95.45533 40064 ft 459 kts 262°
2026-04-22 14:30 39.23371 -95.53625 40068 ft 458 kts 262°
2026-04-22 14:31 39.22440 -95.61768 40072 ft 459 kts 262°
2026-04-22 14:31 39.21501 -95.69923 40070 ft 459 kts 262°
2026-04-22 14:32 39.20555 -95.78081 40070 ft 460 kts 262°
2026-04-22 14:32 39.19605 -95.86232 40064 ft 459 kts 262°
2026-04-22 14:33 39.18649 -95.94378 40056 ft 459 kts 262°
2026-04-22 14:33 39.17688 -96.02520 40045 ft 460 kts 262°
2026-04-22 14:34 39.16720 -96.10670 40038 ft 460 kts 262°
2026-04-22 14:34 39.15747 -96.18809 40036 ft 459 kts 262°
2026-04-22 14:35 39.14776 -96.26885 40034 ft 459 kts 261°
2026-04-22 14:35 39.13792 -96.35019 40036 ft 460 kts 261°
2026-04-22 14:36 39.12800 -96.43164 40040 ft 460 kts 261°
2026-04-22 14:36 39.11803 -96.51311 40047 ft 460 kts 261°
2026-04-22 14:37 39.10801 -96.59451 40050 ft 460 kts 261°
2026-04-22 14:37 39.09791 -96.67596 40053 ft 460 kts 261°
2026-04-22 14:38 39.08779 -96.75722 40043 ft 460 kts 261°
2026-04-22 14:38 39.07761 -96.83843 40040 ft 460 kts 261°
2026-04-22 14:39 39.06736 -96.91971 40039 ft 459 kts 261°
2026-04-22 14:39 39.05713 -97.00034 40025 ft 459 kts 261°
2026-04-22 14:40 39.04158 -97.12213 40010 ft 459 kts 261°
2026-04-22 14:40 39.03115 -97.20318 39999 ft 459 kts 260°
2026-04-22 14:41 39.02067 -97.28419 39997 ft 459 kts 260°
2026-04-22 14:41 39.01013 -97.36521 39996 ft 459 kts 260°
2026-04-22 14:42 38.99954 -97.44619 40003 ft 459 kts 260°
2026-04-22 14:42 38.98888 -97.52717 40010 ft 459 kts 260°
2026-04-22 14:43 38.97819 -97.60803 40013 ft 459 kts 260°
2026-04-22 14:43 38.96750 -97.68835 40012 ft 459 kts 260°
2026-04-22 14:44 38.95670 -97.76916 40008 ft 459 kts 259°
2026-04-22 14:44 38.94583 -97.84997 40004 ft 459 kts 259°
2026-04-22 14:45 38.93492 -97.93069 39995 ft 459 kts 259°
2026-04-22 14:45 38.92395 -98.01139 39982 ft 459 kts 259°
2026-04-22 14:46 38.91292 -98.09206 39972 ft 459 kts 259°
2026-04-22 14:46 38.90184 -98.17275 39967 ft 459 kts 259°
2026-04-22 14:47 38.89069 -98.25341 39965 ft 459 kts 259°
2026-04-22 14:47 38.87949 -98.33411 39968 ft 459 kts 259°
2026-04-22 14:48 38.86824 -98.41470 39968 ft 459 kts 259°
2026-04-22 14:48 38.85693 -98.49527 39973 ft 459 kts 258°
2026-04-22 14:49 38.84555 -98.57595 39975 ft 459 kts 258°
2026-04-22 14:49 38.83413 -98.65654 39982 ft 459 kts 258°
2026-04-22 14:50 38.82459 -98.72348 39985 ft 459 kts 258°
2026-04-22 14:50 38.81305 -98.80406 39983 ft 459 kts 258°
2026-04-22 14:51 38.80146 -98.88469 39986 ft 459 kts 258°
2026-04-22 14:51 38.78982 -98.96518 39979 ft 459 kts 258°
2026-04-22 14:52 38.77812 -99.04568 39977 ft 459 kts 258°
2026-04-22 14:52 38.76636 -99.12616 39986 ft 459 kts 258°
2026-04-22 14:53 38.75464 -99.20601 39992 ft 459 kts 258°
2026-04-22 14:53 38.74278 -99.28642 39994 ft 459 kts 258°
2026-04-22 14:54 38.73087 -99.36678 39990 ft 459 kts 258°
2026-04-22 14:54 38.71888 -99.44721 39978 ft 460 kts 257°
2026-04-22 14:55 38.70685 -99.52755 39966 ft 459 kts 257°
2026-04-22 14:55 38.69475 -99.60800 39954 ft 460 kts 257°
2026-04-22 14:56 38.68259 -99.68841 39930 ft 459 kts 257°
2026-04-22 14:56 38.67040 -99.76866 39927 ft 459 kts 257°
2026-04-22 14:57 38.65815 -99.84888 39923 ft 459 kts 257°
2026-04-22 14:57 38.64594 -99.92846 39920 ft 459 kts 257°
2026-04-22 14:58 38.63361 -100.00844 39911 ft 458 kts 257°
2026-04-22 14:58 38.62124 -100.08833 39908 ft 457 kts 257°
2026-04-22 14:59 38.60884 -100.16802 39907 ft 457 kts 257°
2026-04-22 14:59 38.59638 -100.24772 39903 ft 457 kts 257°
2026-04-22 15:00 38.58384 -100.32753 39896 ft 457 kts 256°
2026-04-22 15:00 38.57131 -100.40696 39893 ft 456 kts 256°
2026-04-22 15:01 38.55870 -100.48650 39901 ft 457 kts 256°
2026-04-22 15:01 38.54611 -100.56558 39922 ft 457 kts 256°
2026-04-22 15:02 38.53338 -100.64515 39944 ft 457 kts 256°
2026-04-22 15:02 38.52059 -100.72470 39974 ft 457 kts 256°
2026-04-22 15:03 38.50775 -100.80420 39991 ft 457 kts 256°
2026-04-22 15:03 38.49487 -100.88365 39990 ft 457 kts 256°
2026-04-22 15:04 38.48190 -100.96321 39988 ft 458 kts 256°
2026-04-22 15:04 38.46889 -101.04273 39969 ft 457 kts 256°
2026-04-22 15:05 38.45585 -101.12203 39939 ft 456 kts 256°
2026-04-22 15:05 38.44276 -101.20134 39916 ft 457 kts 256°
2026-04-22 15:06 38.42960 -101.28066 39881 ft 457 kts 256°
2026-04-22 15:06 38.41650 -101.35930 39866 ft 456 kts 255°
2026-04-22 15:07 38.40325 -101.43848 39865 ft 456 kts 255°
2026-04-22 15:07 38.38995 -101.51762 39866 ft 456 kts 255°
2026-04-22 15:08 38.37660 -101.59671 39854 ft 455 kts 255°
2026-04-22 15:08 38.36334 -101.67489 39855 ft 454 kts 255°
2026-04-22 15:09 38.34986 -101.75408 39848 ft 454 kts 255°
2026-04-22 15:09 38.33652 -101.83211 39851 ft 454 kts 255°
2026-04-22 15:10 38.32299 -101.91061 39851 ft 454 kts 255°
2026-04-22 15:10 38.30941 -101.98903 39847 ft 453 kts 255°
2026-04-22 15:11 38.29581 -102.06733 39829 ft 452 kts 255°
2026-04-22 15:11 38.28217 -102.14546 39828 ft 452 kts 255°
2026-04-22 15:12 38.26850 -102.22343 39823 ft 451 kts 255°
2026-04-22 15:12 38.25479 -102.30138 39815 ft 451 kts 255°
2026-04-22 15:13 38.24111 -102.37878 39832 ft 450 kts 255°
2026-04-22 15:13 38.22733 -102.45644 39854 ft 449 kts 255°
2026-04-22 15:14 38.21351 -102.53403 39877 ft 449 kts 255°
2026-04-22 15:14 38.19965 -102.61146 39896 ft 449 kts 255°
2026-04-22 15:15 38.18579 -102.68867 39905 ft 447 kts 255°
2026-04-22 15:15 38.17189 -102.76573 39901 ft 446 kts 255°
2026-04-22 15:16 38.15799 -102.84250 39886 ft 446 kts 255°
2026-04-22 15:16 38.14404 -102.91924 39863 ft 446 kts 255°
2026-04-22 15:17 38.13006 -102.99584 39834 ft 445 kts 255°
2026-04-22 15:17 38.11603 -103.07242 39807 ft 445 kts 255°
2026-04-22 15:18 38.10204 -103.14849 39821 ft 445 kts 255°
2026-04-22 15:18 38.08789 -103.22510 39856 ft 445 kts 255°
2026-04-22 15:19 38.07370 -103.30164 39896 ft 446 kts 255°
2026-04-22 15:19 38.05945 -103.37824 39934 ft 445 kts 254°
2026-04-22 15:20 38.04515 -103.45480 39945 ft 446 kts 254°
2026-04-22 15:20 38.03080 -103.53129 39942 ft 446 kts 254°
2026-04-22 15:21 38.01642 -103.60771 39943 ft 446 kts 254°
2026-04-22 15:21 38.00205 -103.68372 39908 ft 446 kts 254°
2026-04-22 15:22 37.98754 -103.76022 39866 ft 446 kts 254°
2026-04-22 15:22 37.97298 -103.83666 39822 ft 446 kts 254°
2026-04-22 15:23 37.95835 -103.91321 39780 ft 447 kts 254°
2026-04-22 15:23 37.94367 -103.98973 39762 ft 447 kts 253°
2026-04-22 15:24 37.92897 -104.06605 39767 ft 446 kts 253°
2026-04-22 15:24 37.91423 -104.14230 39768 ft 445 kts 253°
2026-04-22 15:25 37.89945 -104.21850 39773 ft 445 kts 253°
2026-04-22 15:25 37.88466 -104.29443 39771 ft 444 kts 253°
2026-04-22 15:26 37.86981 -104.37039 39777 ft 445 kts 253°
2026-04-22 15:26 37.85490 -104.44638 39777 ft 445 kts 253°
2026-04-22 15:27 37.83995 -104.52231 39788 ft 444 kts 253°
2026-04-22 15:27 37.82497 -104.59811 39794 ft 444 kts 253°
2026-04-22 15:28 37.81008 -104.67318 39814 ft 443 kts 253°
2026-04-22 15:28 37.79503 -104.74874 39823 ft 442 kts 253°
2026-04-22 15:29 37.78000 -104.82401 39840 ft 442 kts 253°
2026-04-22 15:30 37.75981 -104.92462 39859 ft 441 kts 253°
2026-04-22 15:30 37.74221 -105.01193 39875 ft 441 kts 253°
2026-04-22 15:31 37.72699 -105.08716 39887 ft 442 kts 253°
2026-04-22 15:31 37.71170 -105.16247 39902 ft 443 kts 252°
2026-04-22 15:32 37.69632 -105.23797 39920 ft 444 kts 252°
2026-04-22 15:32 37.68088 -105.31351 39930 ft 445 kts 252°
2026-04-22 15:33 37.66536 -105.38914 39944 ft 445 kts 252°
2026-04-22 15:33 37.64976 -105.46490 39954 ft 446 kts 252°
2026-04-22 15:34 37.63420 -105.54017 39985 ft 447 kts 252°
2026-04-22 15:34 37.61848 -105.61600 40030 ft 447 kts 252°
2026-04-22 15:35 37.60523 -105.67968 40069 ft 448 kts 252°
2026-04-22 15:35 37.58681 -105.76792 40112 ft 447 kts 252°
2026-04-22 15:36 37.57094 -105.84366 40134 ft 446 kts 252°
2026-04-22 15:36 37.55504 -105.91924 40140 ft 446 kts 252°
2026-04-22 15:37 37.54180 -105.98203 40134 ft 445 kts 252°
2026-04-22 15:37 37.52584 -106.05742 40106 ft 445 kts 252°
2026-04-22 15:38 37.50987 -106.13263 40075 ft 444 kts 252°
2026-04-22 15:38 37.48582 -106.24542 40063 ft 446 kts 252°
2026-04-22 15:39 37.46968 -106.32078 40064 ft 446 kts 252°
2026-04-22 15:39 37.45345 -106.39629 40053 ft 447 kts 252°
2026-04-22 15:40 37.43723 -106.47152 40042 ft 448 kts 252°
2026-04-22 15:40 37.42086 -106.54719 40022 ft 448 kts 252°
2026-04-22 15:41 37.40446 -106.62275 40024 ft 449 kts 252°
2026-04-22 15:41 37.38793 -106.69865 40078 ft 450 kts 253°
2026-04-22 15:42 37.37131 -106.77468 40119 ft 450 kts 253°
2026-04-22 15:42 37.35464 -106.85072 40163 ft 452 kts 253°
2026-04-22 15:43 37.33788 -106.92688 40203 ft 452 kts 253°
2026-04-22 15:43 37.32108 -107.00297 40221 ft 452 kts 253°
2026-04-22 15:44 37.30426 -107.07894 40222 ft 451 kts 253°
2026-04-22 15:44 37.28742 -107.15468 40220 ft 450 kts 254°
2026-04-22 15:45 37.27058 -107.23022 40188 ft 449 kts 254°
2026-04-22 15:45 37.25380 -107.30521 40137 ft 448 kts 254°
2026-04-22 15:46 37.23695 -107.38031 40093 ft 446 kts 254°
2026-04-22 15:46 37.22008 -107.45523 40089 ft 445 kts 254°
2026-04-22 15:47 37.20323 -107.52985 40127 ft 443 kts 254°
2026-04-22 15:47 37.18640 -107.60409 40164 ft 442 kts 255°
2026-04-22 15:48 37.16959 -107.67805 40183 ft 439 kts 255°
2026-04-22 15:48 37.15277 -107.75164 40172 ft 438 kts 253°
2026-04-22 15:49 37.13481 -107.82435 40178 ft 436 kts 254°
2026-04-22 15:49 37.11696 -107.89705 40158 ft 436 kts 254°
2026-04-22 15:50 37.09906 -107.96904 40119 ft 434 kts 254°
2026-04-22 15:50 37.08116 -108.04131 40083 ft 435 kts 254°
2026-04-22 15:51 37.06315 -108.11351 40046 ft 434 kts 254°
2026-04-22 15:51 37.04518 -108.18550 40017 ft 433 kts 254°
2026-04-22 15:52 37.02717 -108.25735 40031 ft 432 kts 254°
2026-04-22 15:52 37.00917 -108.32903 40028 ft 432 kts 254°
2026-04-22 15:53 36.99113 -108.40065 40018 ft 431 kts 254°
2026-04-22 15:53 36.97308 -108.47205 39998 ft 431 kts 254°
2026-04-22 15:54 36.95499 -108.54345 39981 ft 430 kts 254°
2026-04-22 15:54 36.93689 -108.61468 39965 ft 430 kts 254°
2026-04-22 15:55 36.91874 -108.68590 39955 ft 429 kts 254°
2026-04-22 15:55 36.90059 -108.75694 39948 ft 429 kts 254°
2026-04-22 15:56 36.88239 -108.82795 39940 ft 429 kts 254°
2026-04-22 15:56 36.86417 -108.89887 39943 ft 429 kts 254°
2026-04-22 15:57 36.84593 -108.96963 39933 ft 427 kts 254°
2026-04-22 15:57 36.82771 -109.04012 39926 ft 426 kts 254°
2026-04-22 15:58 36.80962 -109.10996 39925 ft 426 kts 254°
2026-04-22 15:58 36.79135 -109.18025 39933 ft 425 kts 254°
2026-04-22 15:59 36.77306 -109.25047 39926 ft 425 kts 254°
2026-04-22 15:59 36.75479 -109.32039 39922 ft 423 kts 254°
2026-04-22 16:00 36.73656 -109.38999 39926 ft 421 kts 254°
2026-04-22 16:00 36.71835 -109.45931 39913 ft 420 kts 254°
2026-04-22 16:01 36.70015 -109.52841 39917 ft 419 kts 254°
2026-04-22 16:01 36.68198 -109.59719 39911 ft 417 kts 254°
2026-04-22 16:02 36.66384 -109.66573 39909 ft 416 kts 254°
2026-04-22 16:02 36.65142 -109.71251 39895 ft 415 kts 254°
2026-04-22 16:03 36.63337 -109.78042 39889 ft 416 kts 254°
2026-04-22 16:03 36.61515 -109.84871 39889 ft 415 kts 254°
2026-04-22 16:04 36.59695 -109.91683 39897 ft 414 kts 254°
2026-04-22 16:04 36.57876 -109.98469 39887 ft 413 kts 254°
2026-04-22 16:05 36.56057 -110.05234 39880 ft 413 kts 254°
2026-04-22 16:05 36.54229 -110.12023 39882 ft 415 kts 253°
2026-04-22 16:06 36.52384 -110.18853 39899 ft 417 kts 254°
2026-04-22 16:06 36.50532 -110.25693 39893 ft 418 kts 253°
2026-04-22 16:07 36.48671 -110.32546 39891 ft 418 kts 253°
2026-04-22 16:07 36.46811 -110.39378 39892 ft 417 kts 253°
2026-04-22 16:08 36.44956 -110.46173 39886 ft 417 kts 253°
2026-04-22 16:08 36.43091 -110.52993 39893 ft 418 kts 253°
2026-04-22 16:09 36.41217 -110.59821 39894 ft 418 kts 253°
2026-04-22 16:09 36.39342 -110.66639 39898 ft 417 kts 253°
2026-04-22 16:10 36.37463 -110.73456 39896 ft 418 kts 253°
2026-04-22 16:10 36.35576 -110.80281 39894 ft 418 kts 253°
2026-04-22 16:11 36.33687 -110.87099 39898 ft 418 kts 253°
2026-04-22 16:11 36.31795 -110.93907 39900 ft 417 kts 253°
2026-04-22 16:12 36.29901 -111.00708 39903 ft 417 kts 253°
2026-04-22 16:12 36.28008 -111.07489 39902 ft 416 kts 253°
2026-04-22 16:13 36.26109 -111.14273 39903 ft 417 kts 253°
2026-04-22 16:13 36.24219 -111.21005 39903 ft 417 kts 253°
2026-04-22 16:14 36.22308 -111.27799 39907 ft 417 kts 253°
2026-04-22 16:14 36.20395 -111.34583 39900 ft 418 kts 253°
2026-04-22 16:15 36.18473 -111.41380 39897 ft 418 kts 253°
2026-04-22 16:15 36.16547 -111.48176 39896 ft 419 kts 252°
2026-04-22 16:16 36.14616 -111.54972 39894 ft 419 kts 253°
2026-04-22 16:16 36.12676 -111.61786 39895 ft 420 kts 252°
2026-04-22 16:17 36.10730 -111.68597 39904 ft 420 kts 252°
2026-04-22 16:17 36.08783 -111.75393 39922 ft 409 kts 252°
2026-04-22 16:18 36.06907 -111.81885 39981 ft 397 kts 250°
2026-04-22 16:18 36.04871 -111.88255 40042 ft 400 kts 251°
2026-04-22 16:19 36.02831 -111.94654 40100 ft 399 kts 250°
2026-04-22 16:19 36.00780 -112.01058 40147 ft 402 kts 251°
2026-04-22 16:20 35.99065 -112.06412 40182 ft 402 kts 251°
2026-04-22 16:20 35.96663 -112.13884 40180 ft 403 kts 250°
2026-04-22 16:21 35.94598 -112.20295 40004 ft 401 kts 251°
2026-04-22 16:21 35.93903 -112.22451 39897 ft 398 kts 251°
2026-04-22 16:21 35.92878 -112.25627 39507 ft 400 kts 251°
2026-04-22 16:22 35.90826 -112.31972 38966 ft 396 kts 251°
2026-04-22 16:22 35.89805 -112.35124 38668 ft 395 kts 251°
2026-04-22 16:22 35.88784 -112.38275 38217 ft 396 kts 250°
2026-04-22 16:23 35.86742 -112.44564 37315 ft 398 kts 250°
2026-04-22 16:23 35.85711 -112.47731 36885 ft 399 kts 250°
2026-04-22 16:23 35.84676 -112.50911 36404 ft 401 kts 250°
2026-04-22 16:24 35.83636 -112.54104 35949 ft 402 kts 250°
2026-04-22 16:24 35.81537 -112.60531 35086 ft 405 kts 250°
2026-04-22 16:24 35.80480 -112.63763 34624 ft 407 kts 250°
2026-04-22 16:25 35.79419 -112.67004 34193 ft 409 kts 250°
2026-04-22 16:25 35.77303 -112.73454 33997 ft 404 kts 250°
2026-04-22 16:25 35.76244 -112.76683 33992 ft 407 kts 249°
2026-04-22 16:26 35.74142 -112.83068 33988 ft 398 kts 249°
2026-04-22 16:26 35.72063 -112.89379 33975 ft 398 kts 249°
2026-04-22 16:27 35.69991 -112.95650 33968 ft 398 kts 249°
2026-04-22 16:27 35.67899 -113.01970 33975 ft 399 kts 249°
2026-04-22 16:28 35.65801 -113.08293 33975 ft 399 kts 249°
2026-04-22 16:28 35.63701 -113.14610 33971 ft 399 kts 249°
2026-04-22 16:29 35.61597 -113.20926 33968 ft 399 kts 249°
2026-04-22 16:29 35.59487 -113.27245 33965 ft 400 kts 249°
2026-04-22 16:30 35.57372 -113.33566 33962 ft 400 kts 249°
2026-04-22 16:30 35.55255 -113.39883 33961 ft 400 kts 249°
2026-04-22 16:31 35.53142 -113.46171 33960 ft 401 kts 249°
2026-04-22 16:31 35.51014 -113.52490 33953 ft 401 kts 249°
2026-04-22 16:32 35.48882 -113.58811 33952 ft 401 kts 248°
2026-04-22 16:32 35.46750 -113.65118 33981 ft 400 kts 248°
2026-04-22 16:33 35.44612 -113.71429 34015 ft 400 kts 248°
2026-04-22 16:33 35.42471 -113.77735 34042 ft 400 kts 248°
2026-04-22 16:34 35.40327 -113.84038 34079 ft 400 kts 248°
2026-04-22 16:34 35.38180 -113.90336 34103 ft 400 kts 248°
2026-04-22 16:35 35.36044 -113.96588 34115 ft 400 kts 248°
2026-04-22 16:35 35.33900 -114.02856 34114 ft 400 kts 248°
2026-04-22 16:36 35.31743 -114.09143 34096 ft 400 kts 248°
2026-04-22 16:36 35.29584 -114.15427 34079 ft 401 kts 248°
2026-04-22 16:37 35.27413 -114.21729 34056 ft 402 kts 248°
2026-04-22 16:37 35.25240 -114.28028 34013 ft 402 kts 248°
2026-04-22 16:38 35.23061 -114.34329 34026 ft 402 kts 248°
2026-04-22 16:38 35.20878 -114.40631 34063 ft 402 kts 248°
2026-04-22 16:39 35.18708 -114.46880 34070 ft 402 kts 248°
2026-04-22 16:39 35.16522 -114.53162 34063 ft 402 kts 248°
2026-04-22 16:40 35.14331 -114.59450 34072 ft 402 kts 248°
2026-04-22 16:41 35.11053 -114.68879 34050 ft 402 kts 248°
2026-04-22 16:41 35.08867 -114.75166 34049 ft 402 kts 248°
2026-04-22 16:42 35.06674 -114.81458 34050 ft 403 kts 248°
2026-04-22 16:42 35.04473 -114.87763 34040 ft 403 kts 248°
2026-04-22 16:43 35.02024 -114.93908 34049 ft 403 kts 244°
2026-04-22 16:43 34.99420 -114.99978 34041 ft 404 kts 244°
2026-04-22 16:44 34.96805 -115.05989 34049 ft 404 kts 244°
2026-04-22 16:44 34.94183 -115.12035 34044 ft 403 kts 244°
2026-04-22 16:45 34.91557 -115.18071 34045 ft 403 kts 244°
2026-04-22 16:45 34.88932 -115.24096 34055 ft 402 kts 244°
2026-04-22 16:46 34.86301 -115.30123 34056 ft 402 kts 244°
2026-04-22 16:46 34.83678 -115.36120 34059 ft 401 kts 244°
2026-04-22 16:47 34.81053 -115.42110 34061 ft 400 kts 244°
2026-04-22 16:47 34.78578 -115.48102 34071 ft 397 kts 248°
2026-04-22 16:48 34.76314 -115.54243 34077 ft 398 kts 247°
2026-04-22 16:48 34.74062 -115.60370 34080 ft 396 kts 247°
2026-04-22 16:49 34.71808 -115.66485 34076 ft 396 kts 247°
2026-04-22 16:49 34.69555 -115.72580 34085 ft 395 kts 247°
2026-04-22 16:50 34.67304 -115.78665 34085 ft 394 kts 246°
2026-04-22 16:50 34.65055 -115.84730 34078 ft 393 kts 246°
2026-04-22 16:51 34.62805 -115.90791 34086 ft 393 kts 246°
2026-04-22 16:51 34.60598 -115.96803 34079 ft 392 kts 246°
2026-04-22 16:52 34.58367 -116.02842 34084 ft 392 kts 246°
2026-04-22 16:52 34.56137 -116.08878 34090 ft 391 kts 246°
2026-04-22 16:53 34.53904 -116.14906 34085 ft 392 kts 246°
2026-04-22 16:53 34.51666 -116.20941 34087 ft 391 kts 246°
2026-04-22 16:54 34.49430 -116.26955 34088 ft 391 kts 246°
2026-04-22 16:54 34.47205 -116.32929 34090 ft 391 kts 246°
2026-04-22 16:55 34.44967 -116.38929 34087 ft 390 kts 246°
2026-04-22 16:55 34.43865 -116.41877 33974 ft 378 kts 246°
2026-04-22 16:55 34.42782 -116.44774 33129 ft 379 kts 245°
2026-04-22 16:55 34.41685 -116.47702 32397 ft 380 kts 244°
2026-04-22 16:56 34.40507 -116.50562 31755 ft 380 kts 243°
2026-04-22 16:56 34.39328 -116.53428 31129 ft 382 kts 243°
2026-04-22 16:56 34.38142 -116.56324 30485 ft 386 kts 243°
2026-04-22 16:56 34.36945 -116.59231 29804 ft 386 kts 242°
2026-04-22 16:57 34.35752 -116.62119 29157 ft 382 kts 242°
2026-04-22 16:57 34.34573 -116.64981 28531 ft 378 kts 242°
2026-04-22 16:57 34.33403 -116.67809 27928 ft 374 kts 242°
2026-04-22 16:57 34.32263 -116.70608 27486 ft 368 kts 243°
2026-04-22 16:58 34.31532 -116.72450 27148 ft 365 kts 243°
2026-04-22 16:58 34.30061 -116.76147 26540 ft 366 kts 242°
2026-04-22 16:58 34.28941 -116.78915 26054 ft 365 kts 242°
2026-04-22 16:58 34.27829 -116.81667 25576 ft 364 kts 242°
2026-04-22 16:59 34.26723 -116.84414 25096 ft 363 kts 242°
2026-04-22 16:59 34.25623 -116.87146 24634 ft 360 kts 242°
2026-04-22 16:59 34.24527 -116.89858 24158 ft 357 kts 242°
2026-04-22 16:59 34.23441 -116.92543 23703 ft 354 kts 241°
2026-04-22 17:00 34.22363 -116.95207 23208 ft 350 kts 241°
2026-04-22 17:00 34.20517 -117.00542 22319 ft 346 kts 249°
2026-04-22 17:00 34.19769 -117.03299 21881 ft 343 kts 248°
2026-04-22 17:01 34.19022 -117.06039 21429 ft 343 kts 248°
2026-04-22 17:01 34.18281 -117.08776 20987 ft 341 kts 248°
2026-04-22 17:01 34.17547 -117.11495 20537 ft 340 kts 248°
2026-04-22 17:01 34.16816 -117.14195 20100 ft 337 kts 248°
2026-04-22 17:02 34.16088 -117.16868 19664 ft 334 kts 248°
2026-04-22 17:02 34.15353 -117.19531 19221 ft 332 kts 248°
2026-04-22 17:02 34.14626 -117.22168 18782 ft 330 kts 248°
2026-04-22 17:02 34.13904 -117.24793 18322 ft 328 kts 248°
2026-04-22 17:03 34.13189 -117.27397 17881 ft 325 kts 247°
2026-04-22 17:03 34.12482 -117.29958 17244 ft 325 kts 247°
2026-04-22 17:03 34.11776 -117.32518 16820 ft 319 kts 247°
2026-04-22 17:03 34.11076 -117.35053 16404 ft 318 kts 247°
2026-04-22 17:04 34.10611 -117.36733 16114 ft 317 kts 247°
2026-04-22 17:04 34.09771 -117.40143 15551 ft 316 kts 248°
2026-04-22 17:04 34.09120 -117.42674 15135 ft 315 kts 248°
2026-04-22 17:04 34.08478 -117.45192 14739 ft 314 kts 248°
2026-04-22 17:05 34.07860 -117.47696 14318 ft 308 kts 248°
2026-04-22 17:05 34.07229 -117.50119 14004 ft 295 kts 243°
2026-04-22 17:05 34.06423 -117.52310 13771 ft 285 kts 242°
2026-04-22 17:05 34.05626 -117.54539 13359 ft 291 kts 242°
2026-04-22 17:06 34.04829 -117.56779 12972 ft 290 kts 242°
2026-04-22 17:06 34.04027 -117.59011 12607 ft 290 kts 242°
2026-04-22 17:06 34.03223 -117.61236 12231 ft 289 kts 242°
2026-04-22 17:06 34.02424 -117.63453 11858 ft 288 kts 242°
2026-04-22 17:07 34.01627 -117.65663 11488 ft 287 kts 243°
2026-04-22 17:07 34.00861 -117.67852 11130 ft 287 kts 247°
2026-04-22 17:07 34.00496 -117.70231 10771 ft 289 kts 258°
2026-04-22 17:07 34.00262 -117.72605 10394 ft 281 kts 258°
2026-04-22 17:08 34.00045 -117.74908 10030 ft 273 kts 258°
2026-04-22 17:08 33.99830 -117.77142 9658 ft 264 kts 258°
2026-04-22 17:08 33.99687 -117.78591 9420 ft 259 kts 258°
2026-04-22 17:08 33.99476 -117.80714 9100 ft 254 kts 259°
2026-04-22 17:09 33.99267 -117.82831 8773 ft 253 kts 259°
2026-04-22 17:09 33.99062 -117.84942 8439 ft 252 kts 260°
2026-04-22 17:09 33.98860 -117.87033 8127 ft 251 kts 260°
2026-04-22 17:09 33.98657 -117.89122 7802 ft 250 kts 261°
2026-04-22 17:10 33.98453 -117.91203 7482 ft 250 kts 261°
2026-04-22 17:10 33.98248 -117.93282 7163 ft 249 kts 261°
2026-04-22 17:10 33.98044 -117.95351 6845 ft 250 kts 261°
2026-04-22 17:10 33.97840 -117.97422 6543 ft 244 kts 262°
2026-04-22 17:11 33.97647 -117.99395 6234 ft 232 kts 261°
2026-04-22 17:11 33.97456 -118.01311 5924 ft 230 kts 262°
2026-04-22 17:11 33.97266 -118.03220 5629 ft 228 kts 262°
2026-04-22 17:11 33.97144 -118.04460 5431 ft 222 kts 262°
2026-04-22 17:12 33.97107 -118.04834 5369 ft 221 kts 262°
2026-04-22 17:12 33.96953 -118.06589 5109 ft 213 kts 262°
2026-04-22 17:12 33.96784 -118.08342 4827 ft 208 kts 262°
2026-04-22 17:12 33.96612 -118.10043 4557 ft 207 kts 261°
2026-04-22 17:13 33.96437 -118.11758 4299 ft 207 kts 261°
2026-04-22 17:13 33.96266 -118.13453 4034 ft 206 kts 261°
2026-04-22 17:13 33.96092 -118.15169 3771 ft 206 kts 261°
2026-04-22 17:13 33.95919 -118.16869 3591 ft 198 kts 261°
2026-04-22 17:14 33.95755 -118.18485 3460 ft 194 kts 261°
2026-04-22 17:14 33.95593 -118.20078 3203 ft 190 kts 261°
2026-04-22 17:14 33.95435 -118.21645 2949 ft 188 kts 261°
2026-04-22 17:14 33.95277 -118.23199 2710 ft 187 kts 261°
2026-04-22 17:15 33.95172 -118.24226 2543 ft 188 kts 261°
2026-04-22 17:15 33.94959 -118.26318 2203 ft 186 kts 261°
2026-04-22 17:15 33.94802 -118.27855 1950 ft 186 kts 261°
2026-04-22 17:15 33.94646 -118.29398 1697 ft 186 kts 261°
2026-04-22 17:16 33.94492 -118.30911 1460 ft 177 kts 261°
2026-04-22 17:16 33.94342 -118.32300 1186 ft 156 kts 261°
2026-04-22 17:16 33.94215 -118.33556 962 ft 148 kts 262°
2026-04-22 17:16 33.94095 -118.34739 723 ft 139 kts 262°
2026-04-22 17:17 33.93978 -118.35882 521 ft 136 kts 263°
2026-04-22 17:17 33.93860 -118.36998 351 ft 134 kts 263°
2026-04-22 17:17 33.93751 -118.38143 173 ft 139 kts 261°
2026-04-22 17:17 33.93643 -118.39197 114 ft 106 kts 263°
2026-04-22 17:18 33.93572 -118.39899 116 ft 67 kts 263°
2026-04-22 17:18 33.93536 -118.40314 112 ft 38 kts 269°
2026-04-22 17:18 33.93559 -118.40529 115 ft 22 kts 283°
2026-04-22 17:18 33.93595 -118.40660 109 ft 15 kts 278°
2026-04-22 17:19 33.93596 -118.40723 110 ft 6 kts 266°
2026-04-22 17:19 33.93639 -118.40885 109 ft 11 kts 329°
2026-04-22 17:20 33.93813 -118.40917 106 ft 18 kts 353°
2026-04-22 17:20 33.93873 -118.40863 103 ft 8 kts 81°
2026-04-22 17:21 33.93882 -118.40779 103 ft 12 kts 83°
2026-04-22 17:21 33.93905 -118.40552 103 ft 15 kts 83°
2026-04-22 17:22 33.93932 -118.40280 103 ft 18 kts 84°
2026-04-22 17:22 33.93947 -118.40131 104 ft 18 kts 82°
2026-04-22 17:22 33.93973 -118.39964 106 ft 6 kts 50°
2026-04-22 17:23 33.94018 -118.39938 103 ft 0 kts 19°